Latest Weather Observations for Low Rocky Point

IDT60801

Issued at 2:35 pm EDT Thursday 23 October 2014 (issued every 30 minutes, with the page automatically refreshed every 10 minutes)

About weather observations | Map of weather stations | Latest weather observations for TAS | Other Formats
Station Details ID: 097080 Name: LOW ROCKY POINT Lat: -42.98 Lon: 145.50 Height: 34.0 m
Data from the previous 72 hours. | See also: Recent months at Low Rocky Point
Date/Time
EDT
Temp
°C
App
Temp
°C
Dew
Point
Rel
Hum
%
Delta-T
°C
Wind Press
QNH
hPa
Press
MSL
hPa
Rain
since 9 am
mm
Dir
 
Spd
km/h
Gust
km/h
Spd
kts
Gust
kts
23/02:30pm 15.3 8.0 8.8 65 3.3 SSE 37 50 20 27 1021.7 1021.7 0.0
23/02:00pm 15.7 8.6 9.4 66 3.2 SSE 37 50 20 27 1021.9 1021.9 0.0
23/01:30pm 15.1 7.7 8.3 64 3.4 SSE 37 48 20 26 1022.1 1022.1 0.0
23/01:00pm 15.0 7.6 8.3 64 3.4 SSE 37 48 20 26 1022.5 1022.5 0.0
23/12:30pm 15.0 7.2 8.3 64 3.4 SSE 39 50 21 27 1022.9 1022.9 0.0
23/12:00pm 14.6 7.0 7.4 62 3.5 SSE 37 46 20 25 1023.3 1023.3 0.0
23/11:30am 14.7 7.8 7.3 61 3.6 SSE 33 43 18 23 1023.7 1023.7 0.0
23/11:00am 14.4 7.5 7.2 62 3.5 SSE 33 43 18 23 1024.0 1024.0 0.0
23/10:30am 13.9 7.0 6.5 61 3.6 SSE 32 39 17 21 1024.2 1024.2 0.0
23/10:00am 13.5 7.2 7.3 66 3.0 SE 30 37 16 20 1024.3 1024.3 0.0
23/09:30am 12.9 6.5 6.9 67 2.9 SE 30 39 16 21 1024.3 1024.3 0.0
23/09:00am 12.4 5.9 6.7 68 2.7 SE 30 41 16 22 1024.3 1024.3 0.4
23/08:30am 11.7 4.2 6.4 70 2.5 SE 35 46 19 25 1024.3 1024.3 0.4
23/08:00am 11.5 4.4 6.2 70 2.5 SE 33 44 18 24 1024.2 1024.2 0.4
23/07:30am 10.9 3.3 5.9 71 2.3 SE 35 44 19 24 1024.1 1024.1 0.4
23/07:00am 10.2 2.9 5.6 73 2.1 SE 33 43 18 23 1023.7 1023.7 0.4
23/06:30am 10.1 2.8 5.5 73 2.1 SE 33 43 18 23 1023.5 1023.5 0.4
23/06:00am 10.3 3.1 6.1 75 1.9 SE 33 44 18 24 1023.2 1023.2 0.4
23/05:30am 10.6 4.1 6.4 75 2.0 SE 30 37 16 20 1023.0 1023.0 0.4
23/05:00am 10.3 3.4 6.3 76 1.9 SE 32 43 17 23 1022.6 1022.6 0.4
23/04:30am 10.6 3.7 6.6 76 1.9 SE 32 41 17 22 1022.4 1022.4 0.4
23/04:00am 10.6 4.2 6.9 78 1.7 SE 30 41 16 22 1022.2 1022.2 0.4
23/03:30am 10.7 4.0 7.2 79 1.7 SE 32 43 17 23 1022.1 1022.1 0.4
23/03:00am 10.9 3.4 7.8 81 1.5 SE 37 48 20 26 1022.1 1022.1 0.4
23/02:30am 10.7 2.9 8.1 84 1.3 SE 39 50 21 27 1022.1 1022.1 0.4
23/02:00am 10.7 3.4 8.6 87 1.0 SE 37 50 20 27 1022.3 1022.3 0.4
23/01:30am 10.8 3.6 9.2 90 0.8 SSE 37 50 20 27 1022.3 1022.3 0.4
23/01:00am 10.7 3.6 9.5 92 0.6 SSE 37 46 20 25 1022.2 1022.2 0.4
23/12:30am 10.8 4.2 10.0 95 0.4 SSE 35 46 19 25 1022.1 1022.1 0.4
23/12:00am 10.9 3.2 10.3 96 0.3 SSE 41 54 22 29 1021.8 1021.8 0.4
 
Date/Time
EDT
Temp
°C
App
Temp
°C
Dew
Point
Rel
Hum
%
Delta-T
°C
Wind Press
QNH
hPa
Press
MSL
hPa
Rain
since 9 am
mm
Dir
 
Spd
km/h
Gust
km/h
Spd
kts
Gust
kts
22/11:30pm 11.0 3.8 10.5 97 0.3 S 39 56 21 30 1021.8 1021.8 0.2
22/11:00pm 11.5 4.4 10.9 96 0.3 S 39 50 21 27 1021.4 1021.4 0.2
22/10:30pm 12.4 7.6 11.5 94 0.5 S 28 35 15 19 1021.0 1021.0 0.0
22/10:00pm 12.7 8.3 11.6 93 0.6 SSE 26 33 14 18 1020.6 1020.6 0.0
22/09:30pm 12.7 7.9 11.8 94 0.5 S 28 35 15 19 1020.2 1020.2 0.0
22/09:00pm 12.7 8.3 11.8 94 0.5 S 26 32 14 17 1020.0 1020.0 0.0
22/08:30pm 12.6 8.6 11.8 95 0.4 S 24 30 13 16 1019.6 1019.6 0.0
22/08:00pm 12.8 9.9 12.2 96 0.3 S 19 26 10 14 1019.3 1019.3 0.0
22/07:30pm 12.8 10.6 12.2 96 0.3 S 15 20 8 11 1018.8 1018.8 0.0
22/07:00pm 12.9 9.9 12.1 95 0.4 SW 19 24 10 13 1018.3 1018.3 0.0
22/06:30pm 13.1 10.2 12.2 94 0.5 W 19 24 10 13 1017.9 1017.9 0.0
22/06:00pm 13.3 10.7 12.0 92 0.7 WNW 17 20 9 11 1017.6 1017.6 0.0
22/05:30pm 13.6 10.4 12.0 90 0.9 WNW 20 26 11 14 1017.3 1017.3 0.0
22/05:00pm 13.9 11.3 11.9 88 1.1 WNW 17 24 9 13 1017.1 1017.1 0.0
22/04:30pm 14.0 12.1 11.9 87 1.1 NW 13 15 7 8 1017.1 1017.1 0.0
22/04:00pm 13.9 11.8 11.2 84 1.4 NW 13 17 7 9 1016.9 1016.9 0.0
22/03:30pm 14.2 12.0 10.8 80 1.8 WNW 13 20 7 11 1016.6 1016.6 0.0
22/03:00pm 14.8 12.2 10.8 77 2.1 NW 15 20 8 11 1016.6 1016.6 0.0
22/02:30pm 14.7 12.8 10.5 76 2.2 NNW 11 15 6 8 1016.6 1016.6 0.0
22/02:00pm 15.1 13.3 10.7 75 2.3 W 11 13 6 7 1016.6 1016.6 0.0
22/01:30pm 15.3 13.3 10.3 72 2.6 W 11 15 6 8 1016.2 1016.2 0.0
22/01:00pm 16.0 13.7 9.0 63 3.6 SW 11 15 6 8 1015.7 1015.6 0.0
22/12:30pm 16.8 14.6 9.2 61 3.9 SW 11 13 6 7 1015.3 1015.4 0.0
22/12:00pm 15.2 13.3 8.9 66 3.2 W 9 11 5 6 1015.7 1015.6 0.0
22/11:30am 15.6 13.8 8.1 61 3.8 W 7 11 4 6 1016.0 1016.0 0.0
22/11:00am 15.3 13.3 7.3 59 4.0 WNW 7 9 4 5 1016.2 1016.1 0.0
22/10:30am 14.9 12.5 7.2 60 3.8 WNW 9 11 5 6 1016.6 1016.6 0.0
22/10:00am 15.2 12.7 6.7 57 4.1 WNW 9 13 5 7 1016.9 1016.9 0.0
22/09:30am 14.7 12.1 4.1 49 4.9 WNW 7 9 4 5 1016.9 1016.9 0.0
22/09:00am 15.2 13.3 7.7 61 3.7 NW 7 9 4 5 1017.3 1017.3 0.0
22/08:30am 14.4 12.4 8.6 68 2.9 N 9 13 5 7 1017.5 1017.5 0.0
22/08:00am 12.1 8.5 6.8 70 2.5 NE 15 20 8 11 1017.9 1017.9 0.0
22/07:30am 9.9 5.1 5.5 74 2.0 NNE 20 22 11 12 1018.0 1018.0 0.0
22/07:00am 8.6 4.2 5.0 78 1.6 N 17 20 9 11 1018.3 1018.3 0.0
22/06:30am 8.9 4.1 5.6 80 1.5 NNE 20 24 11 13 1018.6 1018.6 0.0
22/06:00am 8.1 4.3 5.6 84 1.1 NNE 15 20 8 11 1018.6 1018.6 0.0
22/05:30am 8.6 5.3 6.2 85 1.1 NE 13 15 7 8 1019.0 1019.0 0.0
22/05:00am 8.5 4.8 6.1 85 1.1 ENE 15 17 8 9 1019.0 1019.0 0.0
22/04:30am 9.2 6.4 6.8 85 1.1 NE 11 13 6 7 1019.5 1019.5 0.0
22/04:00am 9.5 6.4 7.3 86 1.0 N 13 15 7 8 1020.1 1020.1 0.0
22/03:30am 9.3 6.2 7.1 86 1.0 N 13 17 7 9 1020.5 1020.5 0.0
22/03:00am 10.1 6.3 7.5 84 1.2 N 17 19 9 10 1020.7 1020.7 0.0
22/02:30am 10.1 6.2 7.2 82 1.4 N 17 20 9 11 1021.4 1021.4 0.0
22/02:00am 10.1 6.1 6.8 80 1.5 NNW 17 19 9 10 1022.0 1022.0 0.0
22/01:30am 10.5 6.1 7.2 80 1.6 N 20 24 11 13 1022.3 1022.3 0.0
22/01:00am 10.5 6.1 7.4 81 1.5 N 20 24 11 13 1022.6 1022.6 0.0
22/12:30am 11.1 7.5 8.3 83 1.4 NNW 17 20 9 11 1023.0 1023.0 0.0
22/12:00am 10.7 5.9 7.4 80 1.6 NNE 22 26 12 14 1023.2 1023.2 0.0
 
Date/Time
EDT
Temp
°C
App
Temp
°C
Dew
Point
Rel
Hum
%
Delta-T
°C
Wind Press
QNH
hPa
Press
MSL
hPa
Rain
since 9 am
mm
Dir
 
Spd
km/h
Gust
km/h
Spd
kts
Gust
kts
21/11:30pm 10.7 5.7 7.9 83 1.4 NNE 24 26 13 14 1023.4 1023.4 0.0
21/11:00pm 9.8 5.7 7.7 87 1.0 NNE 19 20 10 11 1024.0 1024.0 0.0
21/10:30pm 9.0 6.2 7.1 88 0.9 N 11 17 6 9 1024.5 1024.5 0.0
21/10:00pm 9.4 6.7 7.3 87 1.0 NE 11 13 6 7 1024.8 1024.8 0.0
21/09:30pm 10.3 6.6 7.9 85 1.2 E 17 19 9 10 1025.0 1025.0 0.0
21/09:00pm 11.7 7.2 8.7 82 1.5 ESE 22 26 12 14 1025.1 1025.1 0.0
21/08:30pm 11.5 7.4 7.8 78 1.8 SE 19 22 10 12 1025.6 1025.6 0.0
21/08:00pm 11.7 7.3 7.6 76 2.0 SE 20 24 11 13 1025.8 1025.8 0.0
21/07:30pm 12.4 7.7 7.7 73 2.3 SE 22 26 12 14 1026.0 1026.0 0.0
21/07:00pm 13.0 8.7 7.2 68 2.8 SSE 19 24 10 13 1026.4 1026.4 0.0
21/06:30pm 13.7 9.3 7.2 65 3.2 SSE 20 26 11 14 1026.6 1026.6 0.0
21/06:00pm 14.2 9.7 6.8 61 3.6 S 20 26 11 14 1027.1 1027.1 0.0
21/05:30pm 14.7 9.9 7.5 62 3.6 SSE 22 28 12 15 1027.4 1027.4 0.0
21/05:00pm 14.8 9.5 6.6 58 4.0 SSE 24 30 13 16 1027.5 1027.5 0.0
21/04:30pm 15.6 10.9 7.6 59 4.0 SSE 22 30 12 16 1028.1 1028.1 0.0
21/04:00pm 15.8 11.3 6.8 55 4.4 S 20 30 11 16 1028.5 1028.5 0.0
21/03:30pm 15.7 11.2 7.0 56 4.3 S 20 28 11 15 1028.8 1028.8 0.0
21/03:00pm 16.0 11.7 7.0 55 4.4 S 19 24 10 13 1029.2 1029.2 0.0
21/02:30pm 16.6 12.7 7.3 54 4.6 SSW 17 26 9 14 1029.4 1029.4 0.0
21/02:00pm 16.6 12.4 7.3 54 4.6 S 19 24 10 13 1029.7 1029.7 0.0
21/01:30pm 16.5 12.2 6.9 53 4.7 S 19 24 10 13 1030.0 1030.0 0.0
21/01:00pm 16.3 11.9 6.4 52 4.8 S 19 26 10 14 1030.2 1030.2 0.0
21/12:30pm 15.7 10.6 6.2 53 4.6 S 22 28 12 15 1030.2 1030.2 0.0
21/12:00pm 16.2 11.8 7.2 55 4.4 S 20 28 11 15 1030.6 1030.6 0.0
21/11:30am 15.5 11.0 6.2 54 4.5 SSW 19 20 10 11 1031.0 1031.0 0.0
21/11:00am 14.8 11.0 5.9 55 4.2 S 15 19 8 10 1031.4 1031.4 0.0
21/10:30am 14.4 10.9 5.5 55 4.2 SSE 13 17 7 9 1031.8 1031.8 0.0
21/10:00am 14.6 11.4 6.9 60 3.7 SE 13 17 7 9 1032.0 1032.0 0.0
21/09:30am 14.0 10.7 8.2 68 2.9 ESE 15 17 8 9 1032.2 1032.2 0.0
21/09:00am 13.1 10.3 7.1 67 2.9 NE 11 17 6 9 1032.3 1032.3 0.0
21/08:30am 11.7 8.3 7.6 76 2.0 NE 15 19 8 10 1032.4 1032.4 0.0
21/08:00am 9.4 5.7 6.3 81 1.4 NE 15 19 8 10 1032.5 1032.5 0.0
21/07:30am 7.9 3.5 5.0 82 1.3 NE 17 20 9 11 1032.6 1032.6 0.0
21/07:00am 6.7 1.8 4.0 83 1.1 NNE 19 20 10 11 1032.6 1032.6 0.0
21/06:30am 6.1 0.9 3.4 83 1.1 NNE 20 20 11 11 1032.5 1032.5 0.0
21/06:00am 6.4 1.8 3.9 84 1.1 NNE 17 19 9 10 1032.2 1032.2 0.0
21/05:30am 6.1 1.1 3.6 84 1.1 NNE 19 20 10 11 1032.2 1032.2 0.0
21/05:00am 6.3 1.3 3.8 84 1.1 NNE 19 22 10 12 1031.9 1031.9 0.0
21/04:30am 6.7 1.6 3.9 82 1.2 N 20 22 11 12 1031.8 1031.8 0.0
21/04:00am 7.0 1.9 4.0 81 1.3 N 20 24 11 13 1031.8 1031.8 0.0
21/03:30am 6.8 1.6 3.6 80 1.4 N 20 24 11 13 1031.8 1031.8 0.0
21/03:00am 6.2 0.5 2.8 79 1.4 N 22 26 12 14 1031.9 1031.9 0.0
21/02:30am 6.1 0.7 2.6 78 1.4 N 20 22 11 12 1032.3 1032.3 0.0
21/02:00am 6.0 0.8 2.3 77 1.5 NNE 19 20 10 11 1032.6 1032.6 0.0
21/01:30am 6.4 2.0 2.5 76 1.6 NE 15 17 8 9 1032.8 1032.8 0.0
21/01:00am 6.5 2.1 2.6 76 1.6 N 15 17 8 9 1032.9 1032.9 0.0
21/12:30am 6.2 2.1 2.3 76 1.6 NE 13 15 7 8 1032.8 1032.8 0.0
21/12:00am 6.6 2.5 2.5 75 1.7 ENE 13 15 7 8 1032.9 1032.9 0.0
 
Date/Time
EDT
Temp
°C
App
Temp
°C
Dew
Point
Rel
Hum
%
Delta-T
°C
Wind Press
QNH
hPa
Press
MSL
hPa
Rain
since 9 am
mm
Dir
 
Spd
km/h
Gust
km/h
Spd
kts
Gust
kts
20/11:30pm 7.9 4.0 3.6 74 1.8 ESE 13 17 7 9 1032.9 1032.9 0.0
20/11:00pm 8.7 3.8 4.1 73 2.0 SE 19 22 10 12 1033.0 1033.0 0.0
20/10:30pm 8.9 3.0 4.1 72 2.1 SE 24 28 13 15 1033.2 1033.2 0.0
20/10:00pm 9.1 2.5 4.1 71 2.2 SE 28 35 15 19 1033.2 1033.2 0.0
20/09:30pm 9.1 2.4 3.9 70 2.3 SE 28 35 15 19 1033.5 1033.5 0.0
20/09:00pm 9.3 2.2 3.7 68 2.4 SE 30 37 16 20 1033.5 1033.5 0.0
20/08:30pm 9.3 2.6 3.5 67 2.5 SE 28 39 15 21 1033.6 1033.6 0.0
20/08:00pm 9.1 3.1 3.1 66 2.5 SSE 24 30 13 16 1033.6 1033.6 0.0
20/07:30pm 9.5 3.4 3.0 64 2.8 SSE 24 30 13 16 1033.8 1033.8 0.0
20/07:00pm 10.2 4.5 2.8 60 3.1 SSE 22 32 12 17 1033.7 1033.7 0.0
20/06:30pm 11.1 5.7 2.7 56 3.6 SSE 20 28 11 15 1033.8 1033.8 0.0
20/06:00pm 11.8 6.5 3.1 55 3.8 S 20 28 11 15 1034.0 1034.0 0.0
20/05:30pm 12.4 7.4 3.6 55 3.9 S 19 26 10 14 1034.1 1034.1 0.0
20/05:00pm 12.9 7.8 3.3 52 4.2 S 19 24 10 13 1034.2 1034.2 0.0
20/04:30pm 12.7 7.5 2.6 50 4.4 S 19 24 10 13 1034.1 1034.1 0.0
20/04:00pm 12.7 7.4 2.8 51 4.3 S 20 24 11 13 1034.1 1034.1 0.0
20/03:30pm 13.5 8.6 4.1 53 4.3 S 19 26 10 14 1034.1 1034.1 0.0
20/03:00pm 13.4 8.5 4.3 54 4.1 S 19 26 10 14 1034.3 1034.3 0.0

Other Formats:

Comma delimited format used in spreadsheet applications
http://www.bom.gov.au/fwo/IDT60801/IDT60801.95961.axf

JavaScript Object Notation format (JSON) in row-major order
http://www.bom.gov.au/fwo/IDT60801/IDT60801.95961.json